Regional Weather Roundup
Issued by NWS Green Bay, WI

Home | Current Version | Previous Version | Text Only | Print | Product List | Glossary On
Versions: 1 2 3 4 5 6 7 8 9 10 11 12 13 14 15 16 17 18 19 20 21 22 23 24 25 26 27 28 29 30 31 32 33 34 35 36 37 38 39 40 41 42 43 44 45 46 47 48 49 50
000
ASUS43 KGRB 301710
RWRGRB

NORTH-CENTRAL AND NORTHEAST WISCONSIN REGIONAL WEATHER ROUNDUP
NATIONAL WEATHER SERVICE GREEN BAY WI
1200 PM CDT MON MAR 30 2015

WIZ005-009-010>012-018-019-301800-
NORTH CENTRAL WISCONSIN

CITY           SKY/WX    TMP DP  RH WIND       PRES   REMARKS
IRONWOOD       SUNNY     45  25  45 W10       29.89S
MANITOWISH WTR SUNNY     43  22  44 NW15      29.90R
ARBOR VITAE    MOSUNNY   47  28  47 W12       29.90S
EAGLE RIVER    SUNNY     46  22  40 N12       29.89R
LAND O LAKES   SUNNY     44  20  38 NW15G22   29.89S
RHINELANDER    MOSUNNY   48  24  39 W15G22    29.91R
PHILLIPS       CLOUDY    47  23  38 NW10      29.92S
ANTIGO         SUNNY     46  26  44 W16G26    29.91R
TOMAHAWK       MOSUNNY   49  22  34 NW14      29.92S
MERRILL        MOSUNNY   50  25  37 NW14G22   29.91F
$$

WIZ013-073-301800-
NORTHEAST WISCONSIN

CITY           SKY/WX    TMP DP  RH WIND       PRES   REMARKS
IRON MOUNTAIN  SUNNY     45  22  40 NW20G25   29.88R
MARINETTE      SUNNY     48  25  40 NW10G20   29.90S
OCONTO         SUNNY     50  24  36 NW7G16    29.90S
$$

WIZ017-030-035>037-045-301800-
CENTRAL WISCONSIN

CITY           SKY/WX    TMP DP  RH WIND       PRES   REMARKS
MEDFORD        MOSUNNY   47  26  44 W10       29.93S
WAUSAU         MOSUNNY   51  22  31 NW14      29.90F
MOSINEE        SUNNY     50  25  37 NW14G21   29.94S
MARSHFIELD     MOSUNNY   50  30  46 W8        29.95S
WISC RAPIDS    SUNNY     52  25  35 NW9       29.96S
STEVENS POINT  SUNNY     49  24  37 NW13G18   29.94F
WAUPACA        SUNNY     56  22  27 W12G20    29.94S
SHAWANO        SUNNY     53  23  31 NW14G21   29.93R
CLINTONVILLE   SUNNY     52  23  32 NW15      29.93R
$$

WIZ038-039-048-051-301800-
FOX VALLEY

CITY           SKY/WX    TMP DP  RH WIND       PRES   REMARKS
NWS GREEN BAY  SUNNY     51  30  44 NW18G24   29.93S
APPLETON       MOSUNNY   52  25  35 W12G17    29.94S
OSHKOSH        MOSUNNY   53  28  38 W15G21    29.95S
FOND DU LAC    SUNNY     53  30  41 NW15      29.95F
$$

WIZ022-050-052-301800-
EAST CENTRAL WISCONSIN

CITY           SKY/WX    TMP DP  RH WIND       PRES   REMARKS
STURGEON BAY   SUNNY     46  30  53 NW9G16    29.93S
MANITOWOC      SUNNY     51  28  41 NW20G25   29.93S
SHEBOYGAN      SUNNY     51  28  41 NW15G22   29.95F
$$

LMZ563-521-522-541>543-301800-
LAKESHORE

STATION/POSITION TIME  TEMP    WIND        PRES    VSBY  WAVE
                       AIR SEA DIR/SP/G                  HT/PER
                 (UTC) (F)     (DEG/KT/KT) (MB)    (MI)  (FT/S)
SHEBOYGAN LKSHOR 1700   50     280/ 14/ 17 1014.6F
KEWAUNEE LKSHORE 1700   48     300/ 10/ 16 1012.2F
NORTHPORT PIER   1700   38     330/  4/  5 1012.9R
CHAMBERS ISLAND  1700   43     320/  7/ 12 1013.2R
MENOMINEE LKSHOR 1700   46     290/  7     1013.2S
$$


USA.gov is the U.S. government's official web portal to all federal, state and local government web resources and services.